Stations météo

réclame
Mon MeteoGroup
Pertusato, France (7770): Température de l'air & dewpoint: 30.03.2020 00:00:00 - 05.04.2020 00:00:00 (CEST)Pertusato, France (7770): Vitesse du vent & gusts: 30.03.2020 00:00:00 - 05.04.2020 00:00:00 (CEST)Pertusato, France (7770): Direction du vent: 30.03.2020 00:00:00 - 05.04.2020 00:00:00 (CEST)Pertusato, France (7770): reduced air pressure: 30.03.2020 00:00:00 - 05.04.2020 00:00:00 (CEST)Pertusato, France (7770): visibility: 30.03.2020 00:00:00 - 05.04.2020 00:00:00 (CEST)Pertusato, France (7770): Quantités de précipitations: 30.03.2020 00:00:00 - 05.04.2020 00:00:00 (CEST)
Date & Time tt [°C] td [°C] ff [km/h] ff [knt] fx [km/h] fx [knt] dd ppp [hPa] vv [km] rr [mm]
05.04.2020 00:00:00 - - - - - - - - - -
04.04.2020 23:00:00 13,0 -1,0 5 3 11 6 NW 1020,5 - 0,0
04.04.2020 22:00:00 12,7 -0,2 7 4 20 11 WNW 1020,2 - 0,0
04.04.2020 21:00:00 13,9 0,2 11 6 31 17 WNW 1019,7 - 0,0
04.04.2020 20:00:00 14,3 0,2 16 8 25 13 WNW 1018,9 20 0,0
04.04.2020 19:00:00 15,3 6,3 13 7 29 16 W 1018,6 - 0,0
04.04.2020 18:00:00 16,2 6,9 16 9 33 18 WNW 1018,4 - 0,0
04.04.2020 17:00:00 17,2 8,6 11 6 33 18 W 1018,3 20 0,0
04.04.2020 16:00:00 19,6 2,0 19 11 45 24 NNE 1018,4 - 0,0
04.04.2020 15:00:00 19,3 0,3 29 16 52 28 NE 1018,2 - 0,0
04.04.2020 14:00:00 18,8 0,4 31 17 53 29 NE 1018,5 20 0,0
04.04.2020 13:00:00 18,2 0,3 34 18 58 32 NE 1018,5 - 0,0
04.04.2020 12:00:00 18,3 0,9 28 15 55 30 NE 1018,9 - 0,0
04.04.2020 11:00:00 17,9 1,4 22 12 38 21 NE 1018,8 16 0,0
04.04.2020 10:00:00 15,1 9,7 6 3 11 6 W 1018,4 - 0,0
04.04.2020 09:00:00 13,5 8,1 4 2 11 6 NW 1017,8 - 0,0
04.04.2020 08:00:00 10,9 7,6 5 3 10 5 W 1017,4 - 0,0
04.04.2020 07:00:00 9,6 7,4 6 4 10 6 SW 1016,8 - 0,0
04.04.2020 06:00:00 9,9 7,1 6 3 15 8 W 1016,0 - 0,0
04.04.2020 05:00:00 10,6 7,5 8 4 13 7 SSW 1015,8 - 0,0
04.04.2020 04:00:00 9,5 6,4 6 3 11 6 NE 1015,8 - 0,0
04.04.2020 03:00:00 9,7 3,9 5 3 12 6 NNE 1015,8 - 0,0
04.04.2020 02:00:00 10,2 4,8 6 4 18 10 WNW 1015,7 - 0,0
04.04.2020 01:00:00 9,9 6,4 10 5 16 9 W 1015,6 - 0,0
04.04.2020 00:00:00 10,8 7,3 9 5 15 8 W 1015,2 - 0,0
03.04.2020 23:00:00 10,7 7,2 10 6 15 8 W 1014,9 - 0,0
03.04.2020 22:00:00 11,4 8,4 7 4 15 8 W 1014,3 - 0,0
03.04.2020 21:00:00 10,5 7,4 4 2 8 4 ENE 1014,1 - 0,0
03.04.2020 20:00:00 11,1 6,8 6 3 8 4 NE 1013,5 - 0,0
03.04.2020 19:00:00 13,3 8,1 6 3 22 12 ENE 1012,8 - 0,0
03.04.2020 18:00:00 15,1 8,1 9 5 21 11 ENE 1012,5 - 0,0
03.04.2020 17:00:00 14,0 7,7 15 8 25 13 ENE 1012,4 20 0,0
03.04.2020 16:00:00 14,7 8,4 14 7 29 16 E 1012,4 - 0,0
03.04.2020 15:00:00 13,9 8,5 17 9 28 15 ENE 1012,6 - 0,0
03.04.2020 14:00:00 14,1 8,7 16 9 30 16 NE 1013,0 20 0,0
03.04.2020 13:00:00 14,8 8,7 19 10 28 15 E 1013,0 - 0,0
03.04.2020 12:00:00 15,0 8,7 15 8 29 15 ENE 1012,5 - 0,0
03.04.2020 11:00:00 13,2 9,1 18 10 28 15 NE 1012,5 14 0,0
03.04.2020 10:00:00 12,1 8,9 17 9 27 15 NE 1012,4 - 0,0
03.04.2020 09:00:00 10,6 9,0 13 7 20 11 NE 1012,1 - 0,0
03.04.2020 08:00:00 9,7 8,3 14 7 20 11 NE 1012,0 19 0,0
03.04.2020 07:00:00 9,7 7,6 13 7 21 12 NNE 1011,5 - 0,2
03.04.2020 06:00:00 9,5 6,8 15 8 21 11 NNE 1011,1 - 0,0
03.04.2020 05:00:00 9,2 6,5 14 8 21 11 NE 1011,1 - 0,0
03.04.2020 04:00:00 9,0 6,8 15 8 21 11 NE 1011,2 - 0,0
03.04.2020 03:00:00 8,8 6,8 14 8 19 10 NE 1011,6 - 0,2
03.04.2020 02:00:00 9,5 6,6 14 8 21 11 NE 1011,9 - 0,0
03.04.2020 01:00:00 9,8 5,8 13 7 17 9 NE 1012,2 - 0,0
03.04.2020 00:00:00 10,4 6,5 8 4 18 10 ENE 1012,5 - 0,0
02.04.2020 23:00:00 10,3 6,4 11 6 19 10 ENE 1012,7 - 0,0
02.04.2020 22:00:00 9,6 5,4 12 7 18 10 E 1012,5 - 0,0
02.04.2020 21:00:00 10,4 5,0 11 6 19 11 ENE 1012,4 - 0,0
02.04.2020 20:00:00 10,7 5,0 11 6 22 12 ENE 1012,2 16 0,0
02.04.2020 19:00:00 11,8 5,2 15 8 27 15 E 1012,0 - 0,0
02.04.2020 18:00:00 11,9 4,4 19 10 37 20 E 1011,9 - 0,0
02.04.2020 17:00:00 13,7 5,1 19 10 37 20 E 1012,1 26 0,0
02.04.2020 16:00:00 15,1 5,0 21 11 31 17 E 1012,4 - 0,0
02.04.2020 15:00:00 14,1 4,4 19 10 37 20 ENE 1013,1 - 0,0
02.04.2020 14:00:00 15,1 4,5 19 11 35 19 ENE 1013,3 18 0,0
02.04.2020 13:00:00 14,2 4,5 17 9 35 19 E 1013,7 - 0,0
02.04.2020 12:00:00 12,8 2,6 21 12 36 19 E 1013,7 - 0,0
02.04.2020 11:00:00 11,5 4,5 21 11 37 20 ENE 1013,7 14 0,0
02.04.2020 10:00:00 10,4 4,1 21 11 38 20 ENE 1014,1 - 0,0
02.04.2020 09:00:00 10,0 2,3 20 11 32 17 ENE 1013,8 - 0,0
02.04.2020 08:00:00 8,9 1,1 18 10 32 18 ENE 1013,7 20 0,0
02.04.2020 07:00:00 8,5 0,7 19 10 27 15 NE 1013,8 - 0,0
02.04.2020 06:00:00 8,1 1,0 14 8 24 13 NE 1014,2 - 0,0
02.04.2020 05:00:00 7,2 1,5 14 7 23 12 ENE 1014,3 - 0,0
02.04.2020 04:00:00 6,7 0,8 13 7 21 11 NE 1014,9 - 0,0
02.04.2020 03:00:00 7,6 0,1 13 7 22 12 E 1015,5 - 0,0
02.04.2020 02:00:00 7,9 -0,1 14 8 25 13 E 1016,0 - 0,0
02.04.2020 01:00:00 7,8 -0,4 16 9 27 15 E 1016,4 - 0,0
02.04.2020 00:00:00 7,6 -0,4 15 8 26 14 E 1016,8 - 0,0
01.04.2020 23:00:00 7,8 -0,9 16 9 29 15 E 1016,8 - 0,0
01.04.2020 22:00:00 7,8 -1,2 16 9 28 15 E 1016,7 - 0,0
01.04.2020 21:00:00 7,7 -1,3 16 9 29 15 ENE 1016,5 - 0,0
01.04.2020 20:00:00 8,0 -1,8 19 10 32 17 ENE 1016,5 25 0,0
01.04.2020 19:00:00 8,8 -1,3 20 11 41 22 ENE 1016,7 - 0,0
01.04.2020 18:00:00 10,3 -2,1 25 14 47 26 E 1016,8 - 0,0
01.04.2020 17:00:00 11,8 -1,4 27 15 52 28 E 1017,0 25 0,0
01.04.2020 16:00:00 11,7 -1,8 35 19 59 32 ENE 1016,9 - 0,0
01.04.2020 15:00:00 12,0 -1,9 35 19 61 33 ENE 1017,1 - 0,0
01.04.2020 14:00:00 12,1 -1,8 37 20 63 34 ENE 1017,7 25 0,0
01.04.2020 13:00:00 11,7 -2,9 39 21 67 36 ENE 1018,5 - 0,0
01.04.2020 12:00:00 11,1 -3,4 44 24 70 38 NE 1019,0 - 0,0
01.04.2020 11:00:00 11,5 -2,7 37 20 72 39 ENE 1019,3 18 0,0
01.04.2020 10:00:00 10,3 -2,7 42 23 74 40 NE 1018,9 - 0,0
01.04.2020 09:00:00 9,3 -2,7 44 24 72 39 NE 1018,7 - 0,0
01.04.2020 08:00:00 8,7 -3,8 44 24 74 40 NE 1018,5 - 0,0
01.04.2020 07:00:00 8,0 -2,6 43 23 74 40 NE 1017,9 - 0,0
01.04.2020 06:00:00 8,6 -1,5 45 24 84 45 NE 1018,0 - 0,0
01.04.2020 05:00:00 8,8 -1,9 43 23 82 44 NE 1018,2 - 0,0
01.04.2020 04:00:00 8,6 -2,1 44 24 77 42 NE 1018,3 - 0,0
01.04.2020 03:00:00 9,4 2,5 42 23 72 39 NE 1018,4 - 0,0
01.04.2020 02:00:00 10,1 3,6 42 23 68 37 NE 1018,4 - 0,0
01.04.2020 01:00:00 10,0 3,9 38 21 72 39 NE 1018,2 - 0,0
01.04.2020 00:00:00 10,0 4,1 39 21 69 37 NE 1017,9 - 0,0
31.03.2020 23:00:00 9,9 4,5 35 19 57 31 NE 1017,8 - 0,0
31.03.2020 22:00:00 9,8 6,5 36 19 61 33 NE 1017,3 - 0,0
31.03.2020 21:00:00 9,9 7,5 35 19 59 32 NE 1016,9 - 0,0
31.03.2020 20:00:00 10,2 8,3 36 20 62 33 NE 1016,1 - 0,0
31.03.2020 19:00:00 11,3 8,2 36 19 62 34 NE 1015,7 - 0,0
31.03.2020 18:00:00 12,7 9,0 38 20 63 34 NE 1015,5 - 0,0
31.03.2020 17:00:00 13,6 9,6 39 21 59 32 NE 1015,3 15 0,0
31.03.2020 16:00:00 15,7 10,7 24 13 46 25 NE 1014,8 - 0,0
31.03.2020 15:00:00 16,4 10,0 27 15 44 24 NE 1015,2 - 0,0
31.03.2020 14:00:00 16,4 11,1 26 14 38 21 NE 1015,6 - 0,0
31.03.2020 13:00:00 16,3 11,4 21 11 36 19 NE 1016,0 - 0,0
31.03.2020 12:00:00 16,7 11,6 19 11 32 17 NE 1015,6 - 0,0
31.03.2020 11:00:00 15,8 10,3 19 11 34 19 ENE 1015,9 17 0,0
31.03.2020 10:00:00 14,9 10,3 16 9 29 15 NE 1015,5 - 0,0
31.03.2020 09:00:00 14,0 10,8 8 4 13 7 E 1015,3 - 0,0
31.03.2020 08:00:00 12,0 10,2 4 2 9 5 E 1015,0 15 0,0
31.03.2020 07:00:00 10,3 8,7 5 3 8 4 SSE 1014,8 - 0,0
31.03.2020 06:00:00 10,3 8,9 2 1 9 5 NNE 1014,4 - 0,0
31.03.2020 05:00:00 10,7 9,3 6 4 13 7 NW 1014,2 15 0,0
31.03.2020 04:00:00 11,9 10,1 9 5 16 9 W 1014,0 - 0,0
31.03.2020 03:00:00 12,3 10,5 10 5 32 17 W 1014,1 - 0,0
31.03.2020 02:00:00 12,7 11,3 17 9 26 14 W 1014,1 - 0,0
31.03.2020 01:00:00 12,8 11,2 19 10 30 16 W 1014,1 - 0,0
31.03.2020 00:00:00 12,9 10,8 23 12 32 17 W 1014,2 - 0,0
30.03.2020 23:00:00 13,3 11,0 11 6 31 17 W 1013,8 - 0,0
30.03.2020 22:00:00 13,3 10,5 8 4 27 15 WNW 1013,7 - 0,0
30.03.2020 21:00:00 13,3 10,1 8 4 26 14 WNW 1013,3 - 0,0
30.03.2020 20:00:00 13,2 10,4 14 8 23 12 W 1012,8 12 0,0
30.03.2020 19:00:00 14,2 10,6 11 6 24 13 W 1012,7 - 0,0
30.03.2020 18:00:00 14,4 10,4 14 8 25 14 W 1012,4 - 0,0
30.03.2020 17:00:00 16,4 10,3 7 4 16 9 W 1012,1 12 0,0
30.03.2020 16:00:00 16,9 9,3 7 4 14 7 SW 1012,0 - 0,0
30.03.2020 15:00:00 16,7 8,6 8 4 14 8 SSW 1012,4 - 0,0
30.03.2020 14:00:00 16,9 9,6 8 5 15 8 SW 1012,5 12 0,0
30.03.2020 13:00:00 17,1 9,5 7 4 19 10 SSW 1012,8 - 0,0
30.03.2020 12:00:00 16,3 9,5 11 6 22 12 E 1012,9 - 0,0
30.03.2020 11:00:00 16,4 10,9 11 6 21 12 E 1012,9 12 0,0
30.03.2020 10:00:00 15,0 10,4 8 5 16 9 E 1012,4 - 0,0
30.03.2020 09:00:00 12,8 10,3 10 5 14 7 E 1012,0 - 0,0
30.03.2020 08:00:00 10,9 9,3 10 5 11 6 ENE 1011,7 12 0,0
30.03.2020 07:00:00 11,9 9,3 3 2 17 9 SSW 1011,3 - 0,0
30.03.2020 06:00:00 12,4 9,6 9 5 22 12 WSW 1011,1 - 0,0
30.03.2020 05:00:00 12,2 9,4 6 4 27 15 N 1011,1 12 0,0
30.03.2020 04:00:00 12,2 9,4 10 6 29 16 WNW 1011,2 - 0,0
30.03.2020 03:00:00 12,3 10,0 11 6 30 16 WNW 1011,6 - 0,0
30.03.2020 02:00:00 12,4 9,8 14 8 36 19 W 1011,9 - 0,0
30.03.2020 01:00:00 12,6 9,8 11 6 30 16 WNW 1012,1 - 0,0
30.03.2020 00:00:00 12,7 9,1 10 5 26 14 WNW 1012,7 - 0,0

tt = Température de l'air
td = dewpoint
ff = Vitesse du vent
fx = gusts
dd = Direction du vent
ppp = reduced air pressure
vv = visibility
rr = Quantités de précipitations

stations d'obs. à proximité